Station PPXC1 - 9414847 - Point Potrero, Richmond, CA Image indicating link to RSS feed of recent meteorological observations for station PPXC1


Conditions at PPXC1 as of
(11:00 pm PDT on 06/16/2024)
0600 GMT on 06/17/2024:
     

Click on the graph icon in the table below to see a time series plot of the last five days of that observation.

5-day plot - Wind Direction Wind Direction (WDIR):WNW ( 300 deg true )
5-day plot - Wind Speed Wind Speed (WSPD): 21.0 kts
5-day plot - Wind Gust Wind Gust (GST): 28.0 kts
5-day plot - Atmospheric Pressure Atmospheric Pressure (PRES):29.88 in
5-day plot - Pressure Tendency Pressure Tendency (PTDY):+0.02 in ( Rising )
5-day plot - Air Temperature Air Temperature (ATMP): 62.6 °F
5-day plot - Wind Speed at 10 Meters Wind Speed at 10 meters (WSPD10M): 21.4 kts
5-day plot - Wind Speed at 20 Meters Wind Speed at 20 meters (WSPD20M): 23.3 kts
5-day plot -  Wind Speed, Wind Gust and Atmospheric Pressure Combined plot of Wind Speed, Gust, and Air Pressure
NOS Water Level Observation Network Water Level
Previous observations
TIME
(PDT)
5-day plot - Wind Direction
WDIR
 
5-day plot - Wind Speed
WSPD
kts
5-day plot - Wind Gust
GST
kts
5-day plot - Wave Height
WVHT
ft
5-day plot - Dominant Wave Period
DPD
sec
5-day plot - Average Wave Period
APD
sec
5-day plot - Mean Wave Direction
MWD
 
5-day plot - Atmospheric Pressure
PRES
in
5-day plot - Pressure Tendency
PTDY
in
5-day plot - Air Temperature
ATMP
°F
5-day plot - Water Temperature
WTMP
°F
5-day plot - Dew Point
DEWP
°F
5-day plot - Salinity
SAL
psu
5-day plot - Visibility
VIS
nmi
5-day plot - Tide (above MLLW)
TIDE
ft
2024-06-16 10:54 pm NW 21.0 28.0----29.87- 62.4-----
2024-06-16 10:48 pmWNW 19.0 26.0----29.88- 62.2-----
2024-06-16 10:42 pmWNW 21.0 27.0----29.87- 62.4-----
2024-06-16 10:36 pmWNW 19.0 26.0----29.87- 63.0-----
2024-06-16 10:30 pmWNW 20.0 27.0----29.87- 63.1-----
2024-06-16 10:24 pmWNW 19.0 24.1----29.87- 63.3-----
2024-06-16 10:18 pmWNW 19.0 26.0------ 63.7-----
2024-06-16 10:12 pmWNW 20.0 26.0------ 63.9-----
2024-06-16 10:06 pmWNW 18.1 24.1------ 63.9-----
2024-06-16 10:00 pmWNW 21.0 25.1----29.86+0.02------
2024-06-16 09:54 pm NW 18.1 25.1----29.87-------
2024-06-16 09:48 pmWNW 18.1 25.1----29.87-------
2024-06-16 09:42 pmWNW 21.0 28.0----29.86-------
2024-06-16 09:36 pmWNW 21.0 25.1----29.85-------
2024-06-16 09:30 pmWNW 20.0 25.1----29.85-------
2024-06-16 09:24 pmWNW 18.1 22.0----29.86-------
2024-06-16 09:18 pmWNW 15.9 21.0----29.86- 65.3-----
2024-06-16 09:12 pmWNW 15.9 21.0----29.86- 65.5-----
2024-06-16 09:06 pmWNW 15.9 20.0----29.86- 65.5-----
2024-06-16 09:00 pm-------29.86+0.02 65.7-----
2024-06-16 08:54 pm-------29.86- 65.7-----
2024-06-16 08:48 pmWNW 18.1 22.0----29.86-------
2024-06-16 08:42 pmWNW 19.0 22.9----29.85-------
2024-06-16 08:36 pmWNW 20.0 22.9----29.85-------
2024-06-16 08:30 pmWNW 21.0 27.0----29.85- 66.0-----
2024-06-16 08:24 pmWNW 18.1 25.1----29.85- 66.6-----
2024-06-16 08:18 pmWNW 19.0 24.1----29.85- 66.7-----
2024-06-16 08:12 pmWNW 15.0 22.9----29.85- 66.9-----
2024-06-16 08:06 pmWNW 19.0 22.0----29.85- 67.3-----
2024-06-16 08:00 pmWNW 14.0 19.0----29.85+0.00 67.5-----
2024-06-16 07:54 pm W 14.0 17.1----29.85- 67.1-----
2024-06-16 07:48 pm W 14.0 18.1----29.85- 67.5-----
2024-06-16 07:42 pmWNW 15.9 21.0----29.85- 67.6-----
2024-06-16 07:36 pm W 17.1 20.0----29.85- 67.5-----
2024-06-16 07:30 pmWNW 13.0 18.1----29.85- 68.0-----
2024-06-16 07:24 pmWNW 14.0 20.0----29.85- 68.4-----
2024-06-16 07:18 pmWNW 15.0 20.0----29.85- 68.4-----
2024-06-16 07:12 pmWNW 17.1 20.0----29.84- 68.5-----
2024-06-16 07:06 pmWNW 15.0 19.0----29.84- 68.9-----
2024-06-16 07:00 pmWNW 15.0 19.0----29.84-0.02 69.4-----
2024-06-16 06:54 pmWNW 15.9 20.0----29.84- 69.4-----
2024-06-16 06:48 pmWNW 15.0 20.0----29.84- 70.0-----
2024-06-16 06:42 pmWNW 15.0 19.0----29.84- 70.3-----
2024-06-16 06:36 pmWNW 13.0 18.1----29.84- 70.7-----
2024-06-16 06:30 pmWNW 15.9 20.0------ 70.5-----
2024-06-16 06:24 pm W 15.9 21.0------ 70.9-----
2024-06-16 06:18 pm W 13.0 18.1------ 71.1-----
2024-06-16 06:12 pm W 14.0 19.0------ 70.5-----
2024-06-16 06:06 pm W 9.9 18.1------ 71.1-----
2024-06-16 06:00 pm W 11.1 18.1----29.84-0.04------
2024-06-16 05:54 pm W 15.9 21.0----29.84-------
2024-06-16 05:48 pm W 12.0 17.1----29.84-------
2024-06-16 05:42 pmWNW 13.0 22.0----29.84-------
2024-06-16 05:36 pmWNW 13.0 18.1----29.84-------
2024-06-16 05:30 pmWNW 13.0 19.0----29.84-------
2024-06-16 05:24 pmWNW 17.1 22.0----29.83-------
2024-06-16 05:18 pmWNW 13.0 19.0----29.84- 73.8-----
2024-06-16 05:12 pmWNW 8.0 12.0----29.85- 74.5-----
2024-06-16 05:06 pm W 6.0 13.0----29.85- 72.5-----
2024-06-16 05:00 pm W 11.1 18.1----29.85-0.04 71.6-----
2024-06-16 04:54 pmWSW 11.1 18.1----29.85- 72.0-----
2024-06-16 04:48 pm W 11.1 15.0----29.85- 71.4-----
2024-06-16 04:42 pm SW 11.1 15.9----29.85- 69.3-----
2024-06-16 04:36 pm SW 8.9 21.0----29.86- 70.5-----
2024-06-16 04:30 pm W 11.1 18.1----29.85- 71.1-----
2024-06-16 04:24 pm W 14.0 18.1----29.85- 72.5-----
2024-06-16 04:18 pm W 9.9 15.9----29.85- 73.2-----
2024-06-16 04:12 pm W 8.0 13.0----29.86- 74.1-----
2024-06-16 04:06 pm W 8.0 13.0----29.86- 73.2-----
2024-06-16 04:00 pm W 8.9 17.1----29.86-0.04------
2024-06-16 03:54 pm W 11.1 17.1----29.86-------
2024-06-16 03:48 pm W 13.0 20.0----29.86- 74.7-----
2024-06-16 03:42 pmWNW 14.0 19.0----29.86- 75.2-----
2024-06-16 03:36 pmWNW 13.0 19.0----29.86- 75.6-----
2024-06-16 03:30 pmWNW 13.0 15.9------ 75.6-----
2024-06-16 03:24 pm SW 5.1 8.9------ 71.4-----
2024-06-16 03:18 pm S 7.0 9.9----29.87- 68.0-----
2024-06-16 03:12 pm S 6.0 8.0----29.88- 67.3-----
2024-06-16 03:06 pm S 6.0 8.9----29.88- 66.0-----
2024-06-16 03:00 pmSSW 6.0 8.9----29.88-0.04 66.4-----
2024-06-16 02:54 pm S 6.0 8.0----29.88- 65.3-----
2024-06-16 02:48 pmSSW 6.0 8.9----29.88-------
2024-06-16 02:42 pm S 7.0 8.9----29.88-------
2024-06-16 02:36 pmSSW 7.0 9.9----29.88-------
2024-06-16 02:30 pm S 7.0 8.9----29.88- 64.6-----
2024-06-16 02:24 pm S 8.9 11.1----29.89- 63.7-----
2024-06-16 02:18 pm S 9.9 13.0----29.89-------
2024-06-16 02:12 pm S 12.0 14.0----29.89-------
2024-06-16 02:00 pm S 13.0 15.0----29.89-0.03 61.7-----
2024-06-16 01:54 pm S 13.0 15.9----29.89- 61.2-----
2024-06-16 01:48 pm S 13.0 15.9----29.89-------
2024-06-16 01:42 pmSSW 12.0 14.0----29.90-------
2024-06-16 01:36 pm S 12.0 14.0----29.90-------
2024-06-16 01:30 pm S 12.0 15.0----29.90- 60.6-----
2024-06-16 01:24 pm S 15.0 17.1----29.89- 60.1-----
2024-06-16 01:18 pm S 13.0 15.0----29.90- 60.8-----
2024-06-16 01:12 pm S 14.0 15.9----29.90- 60.3-----
2024-06-16 01:06 pm S 14.0 15.0----29.90- 60.1-----
2024-06-16 01:00 pm S 13.0 15.0----29.91-0.02 61.0-----
2024-06-16 12:54 pm S 14.0 15.0----29.91- 60.8-----
2024-06-16 12:48 pm S 13.0 14.0----29.91- 59.9-----
2024-06-16 12:42 pm S 11.1 12.0----29.91- 60.6-----
2024-06-16 12:36 pm S 11.1 13.0----29.91- 60.6-----
2024-06-16 12:30 pm S 9.9 13.0----29.91-------
2024-06-16 12:24 pm S 11.1 13.0----29.91-------
2024-06-16 12:18 pm S 11.1 13.0----29.92- 60.1-----
2024-06-16 12:12 pm S 11.1 13.0----29.92- 60.1-----
2024-06-16 12:06 pm S 11.1 14.0----29.92- 60.1-----
2024-06-16 12:00 pm S 12.0 14.0----29.92-0.01------
2024-06-16 11:54 am S 11.1 14.0----29.92-------
2024-06-16 11:48 amSSW 11.1 13.0----29.92-------
2024-06-16 11:42 amSSW 8.9 12.0----29.92-------
2024-06-16 11:36 amSSW 9.9 13.0----29.92-------
2024-06-16 11:30 amSSW 8.9 13.0----29.92- 59.7-----
2024-06-16 11:24 amSSW 8.9 12.0----29.92- 59.7-----
2024-06-16 11:18 amSSW 8.9 12.0----29.92- 59.7-----
2024-06-16 11:12 amSSW 8.9 12.0----29.92- 60.4-----
2024-06-16 11:06 amSSW 8.9 12.0----29.92- 60.6-----
2024-06-16 11:00 am SW 8.9 11.1----29.92-0.01 60.4-----
2024-06-16 10:54 am SW 8.9 11.1----29.92- 60.8-----
2024-06-16 10:48 amSSW 6.0 11.1----29.92- 60.6-----
2024-06-16 10:42 am SW 8.0 11.1----29.92- 60.1-----
2024-06-16 10:36 am SW 8.0 11.1----29.92- 60.1-----
2024-06-16 10:30 amSSW 7.0 9.9----29.92- 58.8-----
2024-06-16 10:24 amSSW 7.0 9.9----29.92- 60.3-----
2024-06-16 10:18 amSSW 6.0 9.9----29.92- 60.6-----
2024-06-16 10:12 amSSW 6.0 8.9----29.92- 60.3-----
2024-06-16 10:06 amSSW 6.0 8.9----29.93- 59.9-----
2024-06-16 10:00 amSSW 6.0 8.9----29.93+0.00 59.7-----
2024-06-16 09:54 am SW 6.0 8.0----29.93- 59.7-----
2024-06-16 09:48 amSSW 6.0 8.0----29.93-------
2024-06-16 09:42 am SW 6.0 8.0----29.93-------
2024-06-16 09:36 amSSW 5.1 7.0----29.93-------
2024-06-16 09:30 amSSW 5.1 7.0----29.93-------
2024-06-16 09:24 am S 5.1 6.0----29.93-------
2024-06-16 09:18 am S 5.1 6.0----29.93- 59.0-----
2024-06-16 09:12 am S 5.1 6.0----29.93- 58.8-----
2024-06-16 09:06 am S 5.1 6.0----29.93- 58.6-----
2024-06-16 09:00 am S 5.1 6.0----29.93+0.01 58.5-----
2024-06-16 08:54 am S 4.1 5.1----29.93- 58.6-----
2024-06-16 08:48 am S 4.1 6.0----29.93-------
2024-06-16 08:42 am S 4.1 5.1----29.93-------
2024-06-16 08:36 am S 4.1 5.1----29.93-------
2024-06-16 08:30 amSSW 4.1 5.1----29.94- 57.7-----
2024-06-16 08:18 amSSW 4.1 6.0----29.93-------
2024-06-16 08:12 am S 4.1 6.0----29.93-------
2024-06-16 08:06 am S 5.1 5.1----29.93-------
2024-06-16 08:00 am S 4.1 5.1----29.93+0.02 58.1-----
2024-06-16 07:54 am S 2.9 5.1----29.93- 57.9-----
2024-06-16 07:42 amSSW 1.9 5.1----29.93-------
2024-06-16 07:36 amSSW 2.9 5.1----29.93-------
2024-06-16 07:30 am-------29.92-------
2024-06-16 07:24 am-------29.92-------
2024-06-16 07:18 am S 4.1 5.1----29.92- 57.6-----
2024-06-16 07:12 am S 4.1 5.1----29.92- 57.6-----
2024-06-16 07:06 amSSW 2.9 5.1----29.92- 57.4-----
2024-06-16 07:00 am S 4.1 5.1----29.92+0.01------
2024-06-16 06:54 amSSW 2.9 5.1----29.92-------
2024-06-16 06:48 amSSW 4.1 5.1----29.92- 57.2-----
2024-06-16 06:42 am S 4.1 5.1----29.92- 57.2-----
2024-06-16 06:36 amSSW 4.1 5.1----29.92- 57.4-----
2024-06-16 06:30 am SW 4.1 6.0----29.92- 57.4-----
2024-06-16 06:24 amSSW 4.1 5.1----29.92- 57.2-----
2024-06-16 06:18 am SW 5.1 7.0----29.92-------
2024-06-16 06:12 am SW 5.1 7.0----29.92-------
2024-06-16 06:06 am SW 5.1 7.0----29.92-------
2024-06-16 06:00 amSSW 5.1 7.0----29.92+0.00 57.0-----
2024-06-16 05:54 amSSW 5.1 7.0----29.92- 56.8-----
2024-06-16 05:48 amSSW 5.1 7.0----29.92- 56.8-----
2024-06-16 05:42 amSSW 5.1 8.0----29.91- 56.8-----
2024-06-16 05:36 amSSW 5.1 8.9----29.91- 56.8-----
2024-06-16 05:30 amSSW 6.0 8.0----29.91- 57.0-----
2024-06-16 05:24 amSSW 6.0 8.9----29.92- 57.0-----
2024-06-16 05:18 am-------29.92- 57.2-----
2024-06-16 05:12 am-------29.92- 57.0-----
2024-06-16 05:06 am-------29.91- 57.4-----
2024-06-16 05:00 am SW 6.0 8.0----29.91-0.01 57.4-----
2024-06-16 04:54 amSSW 5.1 8.0----29.91- 57.7-----
2024-06-16 04:48 am S 5.1 7.0----29.91- 57.9-----
2024-06-16 04:42 amSSE 5.1 8.0----29.91- 58.1-----
2024-06-16 04:36 am SE 7.0 9.9----29.91- 57.9-----
2024-06-16 04:30 am SE 6.0 8.0----29.91- 58.1-----
2024-06-16 04:24 am SE 5.1 7.0----29.91- 58.3-----
2024-06-16 04:18 am SE 5.1 7.0----29.91-------
2024-06-16 04:12 am SE 4.1 6.0----29.91-------
2024-06-16 04:06 am SE 5.1 6.0----29.91-------
2024-06-16 04:00 am SE 5.1 7.0----29.91-------
2024-06-16 03:54 am SE 6.0 8.0----29.91-------
2024-06-16 03:48 amSSE 5.1 8.0----29.91-------
2024-06-16 03:42 amSSE 5.1 7.0----29.91-------
2024-06-16 03:36 am S 6.0 7.0----29.91-------
2024-06-16 03:30 amSSE 5.1 7.0----29.91-------
2024-06-16 03:24 am S 5.1 6.0----29.91-------
2024-06-16 03:18 am S 5.1 6.0----29.91- 57.7-----
2024-06-16 03:12 am S 4.1 5.1----29.91- 57.9-----
2024-06-16 03:06 am S 4.1 5.1----29.91- 57.2-----
2024-06-16 03:00 am S 4.1 6.0----29.91-0.02------
2024-06-16 02:54 am S 5.1 6.0----29.91-------
2024-06-16 02:48 am S 5.1 6.0----29.92- 57.6-----
2024-06-16 02:42 amSSW 4.1 5.1----29.92- 58.1-----
2024-06-16 02:36 am S 5.1 6.0----29.92- 58.6-----
2024-06-16 02:30 am SE 4.1 6.0----29.92- 59.0-----
2024-06-16 02:24 amSSE 4.1 6.0----29.92- 59.2-----
2024-06-16 02:18 am SE 4.1 6.0----29.92-------
2024-06-16 02:12 am S 4.1 6.0----29.92-------
2024-06-16 02:06 amSSE 4.1 6.0----29.92-------
2024-06-16 02:00 am S 4.1 7.0----29.92-0.02------
2024-06-16 01:54 am S 5.1 7.0----29.92-------
2024-06-16 01:48 am S 5.1 7.0----29.92- 58.5-----
2024-06-16 01:42 am S 4.1 6.0----29.92- 58.3-----
2024-06-16 01:36 amSSW 5.1 6.0----29.93- 57.9-----
2024-06-16 01:30 am S 6.0 7.0----29.93- 58.3-----
2024-06-16 01:24 amSSW 5.1 7.0----29.93- 57.9-----
2024-06-16 01:18 amSSW 6.0 8.0----29.93- 57.9-----
2024-06-16 01:12 amSSW 5.1 8.0----29.93- 58.1-----
2024-06-16 01:06 amSSW 5.1 7.0----29.93- 58.3-----
2024-06-16 01:00 amSSW 5.1 8.0------ 58.8-----
2024-06-16 12:54 amSSW 5.1 7.0------ 59.0-----
2024-06-16 12:48 amSSW 5.1 7.0----29.94- 58.6-----
2024-06-16 12:42 am S 7.0 7.0----29.93- 58.5-----
2024-06-16 12:36 amSSW 6.0 7.0----29.93- 58.3-----
2024-06-16 12:30 amSSW 5.1 7.0----29.93- 58.5-----
2024-06-16 12:24 amSSW 6.0 8.0----29.93- 58.6-----
2024-06-16 12:18 amSSW 6.0 7.0----29.94- 59.0-----
2024-06-16 12:12 am S 6.0 8.0----29.94- 59.5-----
2024-06-16 12:06 am S 5.1 7.0----29.93- 59.5-----
2024-06-16 12:00 am S 6.0 8.0----29.93+0.01 59.2-----
2024-06-15 11:54 pm S 7.0 8.0----29.93- 59.2-----
2024-06-15 11:48 pm S 7.0 8.0----29.93- 59.4-----
2024-06-15 11:42 pm S 6.0 7.0----29.94- 59.2-----
2024-06-15 11:36 pmSSW 4.1 6.0----29.94- 59.4-----
2024-06-15 11:30 pmSSW 5.1 6.0----29.94- 59.4-----
2024-06-15 11:24 pmSSW 4.1 7.0----29.94- 59.7-----
2024-06-15 11:18 pm S 5.1 7.0----29.94- 59.7-----
2024-06-15 11:12 pm S 5.1 7.0----29.94- 59.7-----
2024-06-15 11:06 pmSSW 5.1 6.0----29.94- 60.1-----
2024-06-15 11:00 pmSSW 4.1 6.0----29.94+0.02 60.6-----
2024-06-15 10:54 pmSSW 5.1 7.0----29.94- 59.9-----